| time (UTC) | temp F | wind direction | speed MPH | gust MPH | rain 1hr in | rain 24hr in | rain mn in | humidity % | barometer mb |
| 20260506184358 | 60 | 247 | 2.0 | 9.0 | 0.00 | 0.06 | 0.06 | 72 | 1015.7 |
| 20260506183855 | 60 | 296 | 6.0 | 9.0 | 0.00 | 0.06 | 0.06 | 72 | 1015.4 |
| 20260506183350 | 60 | 22 | 1.0 | 4.0 | 0.00 | 0.06 | 0.06 | 75 | 1016.0 |
| 20260506182848 | 60 | 346 | 2.0 | 6.0 | 0.00 | 0.06 | 0.06 | 73 | 1016.0 |
| 20260506182345 | 60 | 55 | 3.0 | 4.0 | 0.00 | 0.06 | 0.06 | 72 | 1016.2 |
| 20260506181842 | 59 | 314 | 5.0 | 7.0 | 0.00 | 0.06 | 0.06 | 76 | 1015.8 |
| 20260506181341 | 59 | 309 | 9.0 | 11.0 | 0.00 | 0.06 | 0.06 | 73 | 1016.1 |
| 20260506180837 | 60 | 8 | 2.0 | 7.0 | 0.00 | 0.06 | 0.06 | 74 | 1015.9 |
| 20260506180333 | 58 | 340 | 3.0 | 7.0 | 0.00 | 0.06 | 0.06 | 76 | 1016.1 |
| 20260506175829 | 58 | 341 | 3.0 | 4.0 | 0.00 | 0.06 | 0.06 | 77 | 1016.2 |
| 20260506175326 | 58 | 39 | 2.0 | 4.0 | 0.00 | 0.06 | 0.06 | 76 | 1016.2 |
| 20260506174824 | 59 | 304 | 4.0 | 6.0 | 0.00 | 0.06 | 0.06 | 76 | 1016.4 |
| 20260506174321 | 58 | 96 | 1.0 | 2.0 | 0.00 | 0.06 | 0.06 | 77 | 1016.6 |
| 20260506173819 | 56 | 37 | 2.0 | 4.0 | 0.00 | 0.06 | 0.06 | 80 | 1016.7 |
| 20260506173315 | 57 | 50 | 2.0 | 4.0 | 0.00 | 0.06 | 0.06 | 79 | 1016.4 |
| 20260506172812 | 56 | 228 | 1.0 | 6.0 | 0.00 | 0.06 | 0.06 | 81 | 1016.2 |
| 20260506172308 | 56 | 64 | 1.0 | 6.0 | 0.00 | 0.06 | 0.06 | 80 | 1016.1 |
| 20260506171806 | 55 | 316 | 1.0 | 3.0 | 0.00 | 0.06 | 0.06 | 82 | 1016.3 |
| 20260506171303 | 54 | 309 | 4.0 | 6.0 | 0.00 | 0.06 | 0.06 | 84 | 1016.3 |
| 20260506170801 | 54 | 314 | 1.0 | 3.0 | 0.00 | 0.06 | 0.06 | 85 | 1016.5 |
| 20260506170257 | 54 | 317 | 4.0 | 4.0 | 0.00 | 0.06 | 0.06 | 85 | 1016.3 |
| 20260506165756 | 53 | 329 | 2.0 | 3.0 | 0.00 | 0.06 | 0.06 | 86 | 1016.6 |
| 20260506165253 | 53 | 37 | 4.0 | 6.0 | 0.00 | 0.06 | 0.06 | 86 | 1016.5 |
| 20260506164750 | 53 | 308 | 1.0 | 6.0 | 0.00 | 0.06 | 0.06 | 87 | 1016.7 |
| 20260506164246 | 53 | 294 | 1.0 | 3.0 | 0.00 | 0.06 | 0.06 | 88 | 1016.5 |
| 20260506163743 | 53 | 351 | 0.0 | 3.0 | 0.00 | 0.06 | 0.06 | 89 | 1016.6 |
| 20260506163238 | 53 | 80 | 1.0 | 6.0 | 0.00 | 0.06 | 0.06 | 88 | 1016.5 |
| 20260506162734 | 52 | 4 | 1.0 | 6.0 | 0.00 | 0.06 | 0.06 | 89 | 1016.4 |
| 20260506162232 | 52 | 293 | 2.0 | 3.0 | 0.00 | 0.06 | 0.06 | 90 | 1016.5 |
| 20260506161729 | 52 | 351 | 6.0 | 8.0 | 0.00 | 0.06 | 0.06 | 90 | 1016.3 |
| 20260506161226 | 52 | 316 | 4.0 | 7.0 | 0.00 | 0.06 | 0.06 | 90 | 1015.9 |
| 20260506160724 | 52 | 302 | 7.0 | 10.0 | 0.00 | 0.06 | 0.06 | 89 | 1016.1 |
| 20260506160220 | 52 | 308 | 5.0 | 7.0 | 0.00 | 0.06 | 0.06 | 91 | 1016.0 |
| 20260506155719 | 52 | 339 | 1.0 | 7.0 | 0.00 | 0.06 | 0.06 | 91 | 1015.9 |
| 20260506155216 | 52 | 30 | 2.0 | 4.0 | 0.00 | 0.06 | 0.06 | 91 | 1016.0 |
| 20260506153317 | 51 | 4 | 2.0 | 4.0 | 0.00 | 0.06 | 0.06 | 93 | 1016.8 |
| 20260506152814 | 51 | 314 | 2.0 | 6.0 | 0.00 | 0.06 | 0.06 | 93 | 1016.6 |
| 20260506152312 | 51 | 86 | 2.0 | 6.0 | 0.05 | 0.06 | 0.06 | 93 | 1016.3 |
| 20260506151810 | 51 | 279 | 2.0 | 4.0 | 0.12 | 0.06 | 0.06 | 94 | 1016.2 |
| 20260506151307 | 51 | 307 | 1.0 | 7.0 | 0.12 | 0.05 | 0.05 | 93 | 1016.5 |
| 20260506150803 | 51 | 328 | 3.0 | 6.0 | 0.05 | 0.04 | 0.04 | 93 | 1016.9 |
| 20260506150304 | 51 | 331 | 1.0 | 4.0 | 0.07 | 0.03 | 0.03 | 92 | 1017.6 |
| 20260506145757 | 51 | 320 | 3.0 | 3.0 | 0.07 | 0.03 | 0.03 | 91 | 1018.1 |
| 20260506145254 | 51 | 313 | 4.0 | 4.0 | 0.05 | 0.02 | 0.02 | 90 | 1018.3 |
| 20260506144751 | 51 | 311 | 2.0 | 6.0 | 0.05 | 0.02 | 0.02 | 90 | 1018.6 |
| 20260506144248 | 50 | 311 | 1.0 | 4.0 | 0.00 | 0.01 | 0.01 | 90 | 1018.2 |
| 20260506143746 | 50 | 299 | 2.0 | 6.0 | 0.00 | 0.01 | 0.01 | 91 | 1017.1 |
| 20260506143243 | 50 | 307 | 4.0 | 4.0 | 0.00 | 0.01 | 0.01 | 91 | 1017.1 |
| 20260506142741 | 50 | 317 | 3.0 | 4.0 | 0.00 | 0.01 | 0.01 | 91 | 1016.7 |
| 20260506142239 | 50 | 311 | 4.0 | 8.0 | 0.00 | 0.01 | 0.01 | 91 | 1016.4 |
| 20260506141738 | 51 | 325 | 3.0 | 4.0 | 0.07 | 0.01 | 0.01 | 91 | 1016.0 |
| 20260506141235 | 51 | 329 | 4.0 | 4.0 | 0.07 | 0.01 | 0.01 | 90 | 1016.7 |
| 20260506140732 | 51 | 9 | 1.0 | 3.0 | 0.00 | 0.00 | 0.00 | 90 | 1015.8 |
| 20260506140229 | 51 | 280 | 2.0 | 6.0 | 0.00 | 0.00 | 0.00 | 89 | 1016.5 |
| 20260506135725 | 51 | 43 | 2.0 | 4.0 | 0.00 | 0.00 | 0.00 | 89 | 1017.0 |
| 20260506135222 | 51 | 26 | 3.0 | 8.0 | 0.00 | 0.00 | 0.00 | 87 | 1017.0 |
| 20260506134719 | 51 | 293 | 5.0 | 8.0 | 0.00 | 0.00 | 0.00 | 88 | 1016.8 |
| 20260506134215 | 51 | 0 | 2.0 | 6.0 | 0.00 | 0.00 | 0.00 | 87 | 1016.8 |
| 20260506133713 | 51 | 40 | 2.0 | 3.0 | 0.00 | 0.00 | 0.00 | 88 | 1017.2 |
| 20260506133209 | 51 | 273 | 4.0 | 8.0 | 0.00 | 0.00 | 0.00 | 88 | 1016.5 |
| 20260506132706 | 51 | 63 | 2.0 | 4.0 | 0.00 | 0.00 | 0.00 | 88 | 1016.0 |
| 20260506132203 | 51 | 322 | 2.0 | 7.0 | 0.00 | 0.00 | 0.00 | 88 | 1015.8 |
| 20260506131701 | 51 | 322 | 2.0 | 6.0 | 0.00 | 0.00 | 0.00 | 88 | 1015.4 |
| 20260506131156 | 51 | 68 | 3.0 | 7.0 | 0.00 | 0.00 | 0.00 | 89 | 1015.6 |
| 20260506130654 | 50 | 323 | 6.0 | 10.0 | 0.00 | 0.00 | 0.00 | 89 | 1015.9 |
| 20260506130151 | 51 | 66 | 1.0 | 4.0 | 0.00 | 0.00 | 0.00 | 90 | 1015.9 |
| 20260506125649 | 51 | 314 | 3.0 | 7.0 | 0.00 | 0.00 | 0.00 | 89 | 1015.7 |
| 20260506125147 | 51 | 271 | 1.0 | 4.0 | 0.00 | 0.00 | 0.00 | 89 | 1015.2 |
| 20260506124645 | 51 | 326 | 5.0 | 8.0 | 0.00 | 0.00 | 0.00 | 89 | 1015.2 |
| 20260506124142 | 51 | 311 | 4.0 | 7.0 | 0.00 | 0.00 | 0.00 | 88 | 1015.0 |
| 20260506123639 | 51 | 25 | 2.0 | 6.0 | 0.00 | 0.00 | 0.00 | 88 | 1015.0 |
| 20260506123138 | 51 | 320 | 3.0 | 6.0 | 0.00 | 0.00 | 0.00 | 88 | 1015.1 |
| 20260506122634 | 51 | 58 | 2.0 | 7.0 | 0.00 | 0.00 | 0.00 | 87 | 1015.1 |
| 20260506122132 | 51 | 301 | 3.0 | 6.0 | 0.00 | 0.00 | 0.00 | 87 | 1015.3 |
| 20260506121630 | 51 | 305 | 3.0 | 6.0 | 0.00 | 0.00 | 0.00 | 87 | 1015.0 |
| 20260506121126 | 51 | 321 | 7.0 | 10.0 | 0.00 | 0.00 | 0.00 | 87 | 1014.9 |
| 20260506120624 | 51 | 299 | 3.0 | 8.0 | 0.00 | 0.00 | 0.00 | 88 | 1014.8 |
| 20260506120121 | 51 | 317 | 3.0 | 10.0 | 0.00 | 0.00 | 0.00 | 87 | 1014.7 |
| 20260506115620 | 51 | 307 | 5.0 | 7.0 | 0.00 | 0.00 | 0.00 | 86 | 1014.9 |
| 20260506115117 | 51 | 329 | 6.0 | 8.0 | 0.00 | 0.00 | 0.00 | 86 | 1015.0 |
| 20260506114614 | 52 | 309 | 6.0 | 10.0 | 0.00 | 0.00 | 0.00 | 86 | 1014.9 |
| 20260506114112 | 52 | 326 | 9.0 | 14.0 | 0.00 | 0.00 | 0.00 | 85 | 1014.9 |
| 20260506113610 | 52 | 316 | 9.0 | 11.0 | 0.00 | 0.00 | 0.00 | 84 | 1014.6 |
| 20260506113107 | 52 | 298 | 5.0 | 9.0 | 0.00 | 0.00 | 0.00 | 84 | 1014.5 |
| 20260506112603 | 53 | 317 | 6.0 | 14.0 | 0.00 | 0.00 | 0.00 | 82 | 1014.2 |
| 20260506112101 | 53 | 312 | 7.0 | 9.0 | 0.00 | 0.00 | 0.00 | 81 | 1014.4 |
| 20260506111559 | 53 | 325 | 6.0 | 9.0 | 0.00 | 0.00 | 0.00 | 81 | 1013.9 |
| 20260506111056 | 53 | 348 | 6.0 | 9.0 | 0.00 | 0.00 | 0.00 | 81 | 1013.9 |
| 20260506110553 | 53 | 305 | 2.0 | 8.0 | 0.00 | 0.00 | 0.00 | 82 | 1013.8 |
| 20260506110051 | 54 | 312 | 7.0 | 10.0 | 0.00 | 0.00 | 0.00 | 81 | 1013.8 |
| 20260506105546 | 53 | 336 | 2.0 | 7.0 | 0.00 | 0.00 | 0.00 | 81 | 1013.6 |
| 20260506105044 | 54 | 309 | 2.0 | 10.0 | 0.00 | 0.00 | 0.00 | 81 | 1013.5 |
| 20260506104542 | 54 | 310 | 5.0 | 9.0 | 0.00 | 0.00 | 0.00 | 80 | 1013.8 |
| 20260506104039 | 54 | 324 | 2.0 | 10.0 | 0.00 | 0.00 | 0.00 | 80 | 1013.5 |
| 20260506103537 | 54 | 316 | 3.0 | 9.0 | 0.00 | 0.00 | 0.00 | 80 | 1013.5 |
| 20260506103033 | 55 | 290 | 5.0 | 13.0 | 0.00 | 0.00 | 0.00 | 80 | 1013.5 |
| 20260506102532 | 55 | 29 | 6.0 | 11.0 | 0.00 | 0.00 | 0.00 | 80 | 1013.4 |
| 20260506102029 | 55 | 316 | 6.0 | 9.0 | 0.00 | 0.00 | 0.00 | 80 | 1013.4 |
| 20260506101525 | 55 | 323 | 6.0 | 11.0 | 0.00 | 0.00 | 0.00 | 79 | 1013.3 |
| 20260506101022 | 55 | 307 | 6.0 | 10.0 | 0.00 | 0.00 | 0.00 | 79 | 1013.1 |
| 20260506100521 | 56 | 312 | 7.0 | 8.0 | 0.00 | 0.00 | 0.00 | 79 | 1013.0 |
| 20260506100019 | 56 | 345 | 6.0 | 7.0 | 0.00 | 0.00 | 0.00 | 80 | 1012.9 |
| 20260506095517 | 56 | 331 | 4.0 | 4.0 | 0.00 | 0.00 | 0.00 | 80 | 1012.8 |
| 20260506095012 | 56 | 305 | 4.0 | 6.0 | 0.00 | 0.00 | 0.00 | 80 | 1012.8 |
| 20260506094511 | 56 | 316 | 2.0 | 3.0 | 0.00 | 0.00 | 0.00 | 80 | 1012.7 |
| 20260506094009 | 56 | 297 | 2.0 | 4.0 | 0.00 | 0.00 | 0.00 | 79 | 1012.6 |
| 20260506093507 | 56 | 329 | 3.0 | 4.0 | 0.00 | 0.00 | 0.00 | 80 | 1012.6 |
| 20260506093004 | 56 | 290 | 3.0 | 6.0 | 0.00 | 0.00 | 0.00 | 79 | 1012.3 |
| 20260506092502 | 56 | 319 | 4.0 | 6.0 | 0.00 | 0.00 | 0.00 | 78 | 1012.6 |
| 20260506091958 | 56 | 316 | 6.0 | 9.0 | 0.00 | 0.00 | 0.00 | 78 | 1012.5 |
| 20260506091456 | 56 | 298 | 3.0 | 6.0 | 0.00 | 0.00 | 0.00 | 79 | 1012.4 |
| 20260506090953 | 56 | 325 | 2.0 | 3.0 | 0.00 | 0.00 | 0.00 | 79 | 1012.5 |
| 20260506090451 | 56 | 359 | 1.0 | 7.0 | 0.00 | 0.00 | 0.00 | 79 | 1012.2 |
| 20260506085947 | 56 | 320 | 2.0 | 6.0 | 0.00 | 0.00 | 0.00 | 79 | 1012.4 |
| 20260506085444 | 56 | 67 | 2.0 | 4.0 | 0.00 | 0.00 | 0.00 | 79 | 1012.4 |
| 20260506084940 | 56 | 304 | 2.0 | 3.0 | 0.00 | 0.00 | 0.00 | 79 | 1012.4 |
| 20260506084437 | 56 | 217 | 4.0 | 7.0 | 0.00 | 0.00 | 0.00 | 79 | 1012.3 |
| 20260506083933 | 56 | 329 | 3.0 | 6.0 | 0.00 | 0.00 | 0.00 | 79 | 1011.9 |
| 20260506083431 | 56 | 340 | 3.0 | 7.0 | 0.00 | 0.00 | 0.00 | 79 | 1012.1 |
| 20260506082928 | 56 | 293 | 2.0 | 4.0 | 0.00 | 0.00 | 0.00 | 79 | 1012.2 |
| 20260506082425 | 56 | 299 | 4.0 | 6.0 | 0.00 | 0.00 | 0.00 | 79 | 1012.1 |
| 20260506081920 | 56 | 319 | 2.0 | 4.0 | 0.00 | 0.00 | 0.00 | 79 | 1012.0 |
| 20260506081419 | 56 | 10 | 3.0 | 6.0 | 0.00 | 0.00 | 0.00 | 80 | 1012.0 |
| 20260506080916 | 56 | 7 | 2.0 | 4.0 | 0.00 | 0.00 | 0.00 | 80 | 1012.3 |
| 20260506080413 | 56 | 305 | 5.0 | 7.0 | 0.00 | 0.00 | 0.00 | 80 | 1011.9 |
| 20260506073357 | 56 | 313 | 1.0 | 4.0 | 0.00 | 0.00 | 0.00 | 81 | 1012.4 |
| 20260506072853 | 56 | 308 | 3.0 | 4.0 | 0.00 | 0.00 | 0.00 | 83 | 1012.2 |
| 20260506072351 | 56 | 41 | 0.0 | 1.0 | 0.00 | 0.00 | 0.00 | 82 | 1012.1 |
| 20260506071848 | 56 | 302 | 2.0 | 4.0 | 0.00 | 0.00 | 0.00 | 82 | 1012.0 |
| 20260506071347 | 56 | 333 | 0.0 | 2.0 | 0.00 | 0.00 | 0.00 | 83 | 1011.8 |
| 20260506070843 | 56 | 21 | 0.0 | 3.0 | 0.00 | 0.00 | 0.00 | 83 | 1011.9 |
| 20260506070340 | 56 | 79 | 2.0 | 2.0 | 0.00 | 0.00 | 0.00 | 83 | 1011.6 |
| 20260506062318 | 58 | 335 | 3.0 | 4.0 | 0.00 | 0.00 | 0.00 | 82 | 1011.5 |
| 20260506061813 | 58 | 91 | 2.0 | 3.0 | 0.00 | 0.00 | 0.00 | 82 | 1011.6 |
| 20260506061310 | 58 | 84 | 1.0 | 3.0 | 0.00 | 0.00 | 0.00 | 81 | 1011.6 |
| 20260506060809 | 58 | 317 | 0.0 | 2.0 | 0.00 | 0.00 | 0.00 | 82 | 1011.7 |
| 20260506060307 | 58 | 308 | 1.0 | 7.0 | 0.00 | 0.00 | 0.00 | 82 | 1011.5 |
| 20260506051238 | 60 | 61 | 2.0 | 3.0 | 0.00 | 0.00 | 0.00 | 81 | 1011.6 |
| 20260506050736 | 60 | 307 | 5.0 | 7.0 | 0.00 | 0.00 | 0.00 | 81 | 1011.6 |
| 20260506050233 | 60 | 332 | 2.0 | 8.0 | 0.00 | 0.00 | 0.00 | 81 | 1011.6 |
| 20260506044724 | 60 | 327 | 7.0 | 10.0 | 0.00 | 0.00 | 0.00 | 80 | 1011.7 |
| 20260506044221 | 60 | 278 | 4.0 | 8.0 | 0.00 | 0.00 | 0.00 | 80 | 1011.5 |
| 20260506043718 | 60 | 330 | 2.0 | 6.0 | 0.00 | 0.00 | 0.00 | 80 | 1011.5 |
| 20260506043216 | 60 | 303 | 5.0 | 8.0 | 0.00 | 0.00 | 0.00 | 80 | 1011.4 |
| 20260506042714 | 60 | 330 | 3.0 | 7.0 | 0.00 | 0.00 | 0.00 | 80 | 1011.4 |
| 20260506042212 | 61 | 356 | 2.0 | 10.0 | 0.00 | 0.00 | 0.00 | 79 | 1011.4 |
| 20260506041711 | 61 | 329 | 5.0 | 8.0 | 0.00 | 0.00 | 0.00 | 79 | 1011.4 |
| 20260506041207 | 61 | 308 | 4.0 | 4.0 | 0.00 | 0.00 | 0.00 | 79 | 1011.4 |
| 20260506040705 | 61 | 324 | 6.0 | 8.0 | 0.00 | 0.00 | 0.00 | 79 | 1011.3 |
| 20260506040201 | 61 | 321 | 3.0 | 9.0 | 0.00 | 0.00 | 0.00 | 78 | 1011.1 |
| 20260506035658 | 61 | 329 | 5.0 | 9.0 | 0.00 | 0.00 | 0.00 | 78 | 1011.6 |
| 20260506035155 | 62 | 330 | 4.0 | 13.0 | 0.00 | 0.00 | 0.00 | 78 | 1011.4 |
| 20260506034652 | 62 | 303 | 5.0 | 13.0 | 0.00 | 0.00 | 0.00 | 77 | 1011.4 |
| 20260506034149 | 62 | 307 | 6.0 | 8.0 | 0.00 | 0.00 | 0.00 | 78 | 1011.4 |
| 20260506033646 | 62 | 317 | 6.0 | 9.0 | 0.00 | 0.00 | 0.00 | 77 | 1011.0 |
| 20260506033143 | 62 | 332 | 4.0 | 10.0 | 0.00 | 0.00 | 0.00 | 77 | 1011.1 |
| 20260506032640 | 63 | 310 | 2.0 | 7.0 | 0.00 | 0.00 | 0.00 | 77 | 1010.8 |
| 20260506032137 | 63 | 328 | 6.0 | 8.0 | 0.00 | 0.00 | 0.00 | 77 | 1010.7 |
| 20260506031634 | 63 | 313 | 4.0 | 7.0 | 0.00 | 0.00 | 0.00 | 77 | 1010.6 |
| 20260506031131 | 63 | 301 | 4.0 | 7.0 | 0.00 | 0.00 | 0.00 | 77 | 1010.4 |
| 20260506030630 | 63 | 311 | 5.0 | 8.0 | 0.00 | 0.00 | 0.00 | 77 | 1010.4 |
| 20260506030127 | 64 | 307 | 7.0 | 11.0 | 0.00 | 0.00 | 0.00 | 77 | 1010.4 |
| 20260506025623 | 64 | 278 | 2.0 | 6.0 | 0.00 | 0.00 | 0.00 | 77 | 1009.9 |
| 20260506025119 | 64 | 304 | 4.0 | 6.0 | 0.00 | 0.00 | 0.00 | 77 | 1009.9 |
| 20260506024617 | 64 | 0 | 5.0 | 9.0 | 0.00 | 0.00 | 0.00 | 77 | 1009.9 |
| 20260506024113 | 64 | 355 | 2.0 | 7.0 | 0.00 | 0.00 | 0.00 | 76 | 1009.9 |
| 20260506023609 | 64 | 314 | 5.0 | 9.0 | 0.00 | 0.00 | 0.00 | 76 | 1009.9 |
| 20260506023107 | 65 | 327 | 4.0 | 6.0 | 0.00 | 0.00 | 0.00 | 76 | 1009.6 |
| 20260506022604 | 65 | 329 | 3.0 | 6.0 | 0.00 | 0.00 | 0.00 | 76 | 1009.6 |
| 20260506022101 | 65 | 73 | 5.0 | 7.0 | 0.00 | 0.00 | 0.00 | 75 | 1009.4 |
| 20260506021559 | 65 | 7 | 4.0 | 6.0 | 0.00 | 0.00 | 0.00 | 76 | 1009.6 |
| 20260506021056 | 65 | 306 | 2.0 | 4.0 | 0.00 | 0.00 | 0.00 | 77 | 1009.6 |
| 20260506020553 | 65 | 306 | 2.0 | 6.0 | 0.00 | 0.00 | 0.00 | 77 | 1009.1 |
| 20260506020050 | 65 | 307 | 1.0 | 1.0 | 0.00 | 0.00 | 0.00 | 77 | 1009.2 |
| 20260506015548 | 65 | 296 | 1.0 | 3.0 | 0.00 | 0.00 | 0.00 | 76 | 1009.2 |
| 20260506015045 | 66 | 11 | 0.0 | 3.0 | 0.00 | 0.00 | 0.00 | 75 | 1009.2 |
| 20260506014542 | 66 | 311 | 3.0 | 6.0 | 0.00 | 0.00 | 0.00 | 75 | 1009.1 |
| 20260506014038 | 66 | 294 | 3.0 | 6.0 | 0.00 | 0.00 | 0.00 | 75 | 1008.6 |
| 20260506013536 | 66 | 71 | 2.0 | 6.0 | 0.00 | 0.00 | 0.00 | 75 | 1008.6 |
| 20260506013032 | 66 | 59 | 2.0 | 6.0 | 0.00 | 0.00 | 0.00 | 73 | 1008.3 |
| 20260506012529 | 66 | 355 | 3.0 | 4.0 | 0.00 | 0.00 | 0.00 | 73 | 1008.1 |
| 20260506012026 | 66 | 349 | 4.0 | 6.0 | 0.00 | 0.00 | 0.00 | 73 | 1008.2 |
| 20260506011524 | 67 | 307 | 6.0 | 8.0 | 0.00 | 0.00 | 0.00 | 72 | 1008.0 |
| 20260506011019 | 67 | 319 | 5.0 | 7.0 | 0.00 | 0.00 | 0.00 | 73 | 1008.0 |
| 20260506010519 | 67 | 327 | 5.0 | 6.0 | 0.00 | 0.00 | 0.00 | 73 | 1007.5 |
| 20260506010015 | 67 | 323 | 6.0 | 8.0 | 0.00 | 0.00 | 0.00 | 72 | 1007.7 |
| 20260506005512 | 68 | 266 | 5.0 | 8.0 | 0.00 | 0.00 | 0.00 | 72 | 1007.5 |
| 20260506005008 | 68 | 305 | 6.0 | 9.0 | 0.00 | 0.00 | 0.00 | 72 | 1007.2 |
| 20260506004506 | 69 | 321 | 7.0 | 14.0 | 0.00 | 0.00 | 0.00 | 71 | 1007.0 |
| 20260506004002 | 70 | 301 | 6.0 | 10.0 | 0.00 | 0.00 | 0.00 | 71 | 1007.3 |
| 20260506003458 | 70 | 294 | 5.0 | 9.0 | 0.00 | 0.00 | 0.00 | 71 | 1007.6 |
| 20260506002954 | 70 | 312 | 5.0 | 10.0 | 0.00 | 0.00 | 0.00 | 70 | 1007.2 |
| 20260506002451 | 71 | 51 | 4.0 | 7.0 | 0.00 | 0.00 | 0.00 | 70 | 1007.2 |
| 20260506001946 | 71 | 324 | 2.0 | 4.0 | 0.00 | 0.00 | 0.00 | 70 | 1006.5 |
| 20260506001443 | 71 | 309 | 6.0 | 9.0 | 0.00 | 0.00 | 0.00 | 70 | 1006.7 |
| 20260506000940 | 71 | 333 | 3.0 | 8.0 | 0.00 | 0.00 | 0.00 | 71 | 1006.8 |
| 20260506000438 | 71 | 307 | 3.0 | 7.0 | 0.00 | 0.00 | 0.00 | 69 | 1007.1 |
| 20260505235935 | 72 | 313 | 8.0 | 10.0 | 0.00 | 0.00 | 0.00 | 69 | 1006.8 |
| 20260505235433 | 72 | 347 | 7.0 | 10.0 | 0.00 | 0.00 | 0.00 | 68 | 1006.8 |
| 20260505234929 | 72 | 26 | 4.0 | 7.0 | 0.00 | 0.00 | 0.00 | 69 | 1006.8 |
| 20260505234427 | 73 | 300 | 4.0 | 7.0 | 0.00 | 0.00 | 0.00 | 68 | 1007.0 |
| 20260505233923 | 73 | 317 | 9.0 | 11.0 | 0.00 | 0.00 | 0.00 | 67 | 1007.1 |
| 20260505233421 | 73 | 338 | 5.0 | 11.0 | 0.00 | 0.00 | 0.00 | 66 | 1007.0 |
| 20260505232918 | 74 | 329 | 3.0 | 8.0 | 0.00 | 0.00 | 0.00 | 66 | 1007.0 |
| 20260505232416 | 74 | 327 | 6.0 | 10.0 | 0.00 | 0.00 | 0.00 | 65 | 1006.5 |
| 20260505231912 | 74 | 335 | 5.0 | 7.0 | 0.00 | 0.00 | 0.00 | 65 | 1006.7 |
| 20260505231410 | 74 | 327 | 4.0 | 7.0 | 0.00 | 0.00 | 0.00 | 65 | 1006.6 |
| 20260505230908 | 75 | 289 | 6.0 | 8.0 | 0.00 | 0.00 | 0.00 | 64 | 1006.6 |
| 20260505230406 | 75 | 333 | 3.0 | 8.0 | 0.00 | 0.00 | 0.00 | 64 | 1006.7 |
| 20260505225902 | 75 | 339 | 5.0 | 9.0 | 0.00 | 0.00 | 0.00 | 64 | 1006.5 |
| 20260505225359 | 76 | 1 | 4.0 | 10.0 | 0.00 | 0.00 | 0.00 | 63 | 1006.5 |
| 20260505224854 | 77 | 1 | 4.0 | 13.0 | 0.00 | 0.00 | 0.00 | 62 | 1006.4 |
| 20260505224352 | 77 | 335 | 7.0 | 13.0 | 0.00 | 0.00 | 0.00 | 62 | 1006.6 |
| 20260505223849 | 78 | 330 | 8.0 | 13.0 | 0.00 | 0.00 | 0.00 | 61 | 1006.5 |
| 20260505223346 | 78 | 296 | 6.0 | 9.0 | 0.00 | 0.00 | 0.00 | 62 | 1006.3 |
| 20260505222842 | 78 | 356 | 6.0 | 13.0 | 0.00 | 0.00 | 0.00 | 60 | 1006.1 |
| 20260505222338 | 79 | 324 | 6.0 | 9.0 | 0.00 | 0.00 | 0.00 | 61 | 1006.1 |
| 20260505221835 | 78 | 335 | 7.0 | 10.0 | 0.00 | 0.00 | 0.00 | 62 | 1006.2 |
| 20260505221332 | 79 | 321 | 7.0 | 9.0 | 0.00 | 0.00 | 0.00 | 63 | 1006.1 |
| 20260505220829 | 79 | 332 | 6.0 | 10.0 | 0.00 | 0.00 | 0.00 | 63 | 1006.0 |
| 20260505220326 | 80 | 345 | 8.0 | 10.0 | 0.00 | 0.00 | 0.00 | 61 | 1005.9 |
| 20260505215824 | 80 | 299 | 6.0 | 11.0 | 0.00 | 0.00 | 0.00 | 62 | 1005.9 |
| 20260505215322 | 81 | 327 | 10.0 | 11.0 | 0.00 | 0.00 | 0.00 | 59 | 1005.8 |
| 20260505214819 | 81 | 318 | 6.0 | 13.0 | 0.00 | 0.00 | 0.00 | 57 | 1006.0 |
| 20260505214317 | 82 | 304 | 8.0 | 14.0 | 0.00 | 0.00 | 0.00 | 56 | 1005.7 |
| 20260505213813 | 82 | 333 | 6.0 | 10.0 | 0.00 | 0.00 | 0.00 | 55 | 1005.6 |
| 20260505213312 | 83 | 284 | 3.0 | 8.0 | 0.00 | 0.00 | 0.00 | 51 | 1005.8 |
| 20260505212807 | 82 | 303 | 4.0 | 8.0 | 0.00 | 0.00 | 0.00 | 49 | 1006.0 |
| 20260505212306 | 82 | 309 | 5.0 | 13.0 | 0.00 | 0.00 | 0.00 | 49 | 1005.9 |
| 20260505211800 | 83 | 309 | 5.0 | 8.0 | 0.00 | 0.00 | 0.00 | 49 | 1005.9 |
| 20260505211259 | 83 | 317 | 4.0 | 6.0 | 0.00 | 0.00 | 0.00 | 50 | 1005.7 |
| 20260505210754 | 83 | 308 | 5.0 | 10.0 | 0.00 | 0.00 | 0.00 | 49 | 1005.8 |
| 20260505210252 | 84 | 0 | 2.0 | 8.0 | 0.00 | 0.00 | 0.00 | 46 | 1005.9 |
| 20260505205749 | 84 | 291 | 3.0 | 10.0 | 0.00 | 0.00 | 0.00 | 45 | 1005.9 |
| 20260505205247 | 85 | 318 | 7.0 | 14.0 | 0.00 | 0.00 | 0.00 | 46 | 1005.9 |
| 20260505204743 | 85 | 307 | 5.0 | 13.0 | 0.00 | 0.00 | 0.00 | 45 | 1005.7 |
| 20260505204242 | 85 | 308 | 10.0 | 17.0 | 0.00 | 0.00 | 0.00 | 45 | 1005.7 |
| 20260505203738 | 86 | 323 | 6.0 | 9.0 | 0.00 | 0.00 | 0.00 | 47 | 1006.0 |
| 20260505203235 | 88 | 313 | 9.0 | 11.0 | 0.00 | 0.00 | 0.00 | 43 | 1005.8 |
| 20260505202731 | 90 | 311 | 6.0 | 8.0 | 0.00 | 0.00 | 0.00 | 47 | 1005.8 |
| 20260505202227 | 90 | 256 | 3.0 | 6.0 | 0.00 | 0.00 | 0.00 | 45 | 1005.5 |
| 20260505201724 | 88 | 241 | 3.0 | 8.0 | 0.00 | 0.00 | 0.00 | 47 | 1005.9 |
| 20260505201222 | 90 | 236 | 1.0 | 3.0 | 0.00 | 0.00 | 0.00 | 48 | 1005.7 |
| 20260505200719 | 89 | 247 | 4.0 | 7.0 | 0.00 | 0.00 | 0.00 | 46 | 1005.8 |
| 20260505200216 | 89 | 253 | 7.0 | 10.0 | 0.00 | 0.00 | 0.00 | 49 | 1005.9 |
| 20260505195712 | 88 | 242 | 2.0 | 7.0 | 0.00 | 0.00 | 0.00 | 56 | 1006.0 |
| 20260505195209 | 88 | 297 | 4.0 | 7.0 | 0.00 | 0.00 | 0.00 | 53 | 1006.0 |
| 20260505194707 | 87 | 285 | 7.0 | 10.0 | 0.00 | 0.00 | 0.00 | 52 | 1006.0 |
| 20260505194203 | 87 | 256 | 3.0 | 11.0 | 0.00 | 0.00 | 0.00 | 54 | 1006.1 |
| 20260505193659 | 87 | 299 | 3.0 | 6.0 | 0.00 | 0.00 | 0.00 | 57 | 1006.0 |
| 20260505193156 | 87 | 251 | 2.0 | 7.0 | 0.00 | 0.00 | 0.00 | 56 | 1005.9 |
| 20260505192655 | 86 | 273 | 3.0 | 8.0 | 0.00 | 0.00 | 0.00 | 57 | 1006.2 |
| 20260505192152 | 86 | 297 | 3.0 | 11.0 | 0.00 | 0.00 | 0.00 | 57 | 1006.2 |
| 20260505191650 | 86 | 303 | 5.0 | 9.0 | 0.00 | 0.00 | 0.00 | 56 | 1006.2 |
| 20260505191148 | 86 | 212 | 4.0 | 11.0 | 0.00 | 0.00 | 0.00 | 55 | 1006.1 |
| 20260505190644 | 87 | 245 | 3.0 | 7.0 | 0.00 | 0.00 | 0.00 | 57 | 1005.9 |
| 20260505190144 | 86 | 248 | 4.0 | 6.0 | 0.00 | 0.00 | 0.00 | 58 | 1005.9 |
| 20260505185641 | 86 | 191 | 6.0 | 8.0 | 0.00 | 0.00 | 0.00 | 58 | 1006.1 |
| 20260505185137 | 87 | 151 | 1.0 | 7.0 | 0.00 | 0.00 | 0.00 | 58 | 1006.0 |